Location: Unspecified
(0.0000°N, 0.0000°E)
Time: 10:21:48
(UTC+00:00)

METEOR M2 - Pass Details

Date: 31 May 2024
Orbit: 818 x 826 km, 98.4° (Epoch: 19 June)

Event Time Altitude Azimuth Distance (km) Brightness Sun altitude
Rises 03:54:32 0° 50° (NE) 3,344 ? -28.4°
Reaches altitude 10° 03:58:24 10° 79° (E) 2,417 ? -27.5°
Maximum altitude 04:00:34 12° 103° (ESE) 2,247 ? -27.0°
Drops below altitude 10° 04:02:44 10° 127° (SE) 2,423 ? -26.5°
Sets 04:06:35 0° 155° (SSE) 3,360 ? -25.6°
